User: anonymous   Login
Location: Great Northern Moose Lodge
(44.6765°N, 71.1811°W)
Time: 17:09:59
(UTC-04:00)
Language:

Terra - Orbit

View from above orbital plane
View from above orbital plane
View from above satellite
View from above satellite

Ground track
Ground track

The orbit data is extracted from the following two-line orbital elements,

1 25994U 99068A   17229.32100816  .00000017  00000-0  13853-4 0  9995
2 25994  98.2047 303.4836 0000761  93.6155 266.5125 14.57107424939576
Epoch (UTC): 17 August 2017 07:42:15
Eccentricity: 0.0000761
inclination: 98.2047°
perigee height: 702 km
apogee height: 703 km
right ascension of ascending node: 303.4836°
argument of perigee: 93.6155°
revolutions per day: 14.57107424
mean anomaly at epoch: 266.5125°
orbit number at epoch: 93957

The dashed part of the orbit path shows where the satellite is in the earth's shadow,  

DLR